GEFSMA_con_probscp_156.txt.gz
Probability
0 0 0 0 0 0 0 0 0 0 0 0 0 0 0 0 0 0 0 0 0 0 0 0 0 0 0 0 0 0 0 0 0 0 0 0 0 0 0 0 0 0 0
0 0 0 0 0 0 0 0 0 0 0 0 0 0 0 0 0 0 0 0 0 0 0 0 0 0 0 0 0 0 0 0 0 0 0 0 0 0 0 0 0 0 0
0 0 0 0 0 0 0 0 0 0 0 0 0 0 0 0 0 0 0 0 0 0 0 0 0 0 0 0 0 0 0 0 0 0 0 0 0 0 0 0 0 0 0
0 0 0 0 0 0 0 0 0 0 0 0 0 0 0 0 0 0 0 0 0 0 0 0 0 0 0 0 0 0 0 1 1 0 0 0 0 0 0 0 0 0 0
0 0 0 0 0 0 0 0 0 0 0 0 0 0 0 0 0 0 0 0 0 0 0 0 0 0 0 0 0 0 0 1 1 0 0 0 0 0 0 0 0 0 0
0 0 0 0 0 0 0 0 0 0 0 0 0 0 0 0 0 0 0 0 0 0 0 0 0 0 0 0 0 0 0 1 1 0 0 0 0 0 0 0 0 0 0
0 0 0 0 0 0 0 0 0 0 0 0 0 0 0 0 0 0 0 0 0 0 0 0 0 0 0 0 0 0 0 0 0 0 0 0 1 1 0 0 0 0 0
1 1 1 1 0 0 0 0 0 0 0 0 0 0 0 0 0 0 0 0 0 0 0 0 0 0 0 0 0 0 0 0 0 0 0 0 1 1 0 0 0 0 0
0 1 2 2 1 0 0 0 0 0 0 0 0 0 0 0 0 0 0 0 0 0 0 0 0 0 0 0 0 0 1 1 0 0 0 0 0 0 0 0 0 0 0
0 1 2 3 2 1 0 0 0 0 0 0 0 0 0 0 0 0 0 0 0 0 0 0 0 0 0 0 0 0 1 1 0 0 0 0 0 0 0 0 0 0 0
1 2 3 3 2 1 0 0 0 0 0 0 0 0 0 0 0 0 0 0 0 0 0 0 0 0 0 0 0 0 1 1 0 0 0 0 0 0 0 1 1 1 1
3 3 3 3 1 1 0 0 0 0 0 0 1 1 1 1 0 0 0 0 0 0 0 0 0 0 0 0 0 0 0 0 0 0 0 0 0 0 0 0 1 1 2
3 3 3 2 1 1 1 1 1 1 1 1 1 2 2 1 0 0 0 0 0 0 0 0 0 0 0 0 0 0 0 0 0 0 0 0 0 0 0 0 0 1 2
1 2 3 3 2 3 3 2 2 2 1 1 1 1 1 1 0 0 0 0 0 0 0 0 0 0 0 0 0 0 0 0 0 0 0 0 0 0 0 0 0 0 1
0 1 2 3 4 4 3 2 2 1 1 0 1 1 1 1 1 1 0 0 0 0 0 0 0 0 0 0 0 0 0 0 0 0 0 0 0 0 0 0 0 0 0
0 1 2 4 3 2 1 1 1 0 0 1 2 2 2 2 2 2 1 0 0 0 0 0 0 0 0 0 0 0 0 0 0 0 0 0 0 0 0 0 0 0 0
0 1 3 4 3 1 0 0 0 0 0 1 2 3 3 3 3 3 2 1 0 0 0 0 0 1 1 0 0 0 0 0 0 0 0 0 0 0 0 0 0 0 0
1 2 4 5 3 1 0 0 0 0 0 0 1 1 2 1 2 3 3 2 1 1 0 0 0 1 2 1 0 0 0 0 0 0 0 0 0 0 0 0 0 0 0
2 2 4 5 3 1 0 0 0 0 0 0 0 0 0 0 1 3 3 3 2 1 0 0 0 1 1 1 0 0 0 0 0 0 0 0 0 0 0 0 0 0 0
3 3 3 3 2 1 0 0 0 0 0 0 0 0 0 0 0 1 2 2 2 1 0 0 0 0 0 0 0 0 0 0 0 0 0 0 0 0 0 0 0 0 0
5 5 4 2 1 1 0 0 0 1 1 1 1 1 0 0 0 0 1 1 1 0 1 1 0 0 0 0 0 0 0 0 0 0 0 0 0 0 0 0 0 0 0
7 6 5 3 2 2 1 0 0 1 2 2 2 2 1 0 0 0 0 0 0 0 1 1 0 0 0 0 0 0 0 0 0 0 0 0 0 0 0 0 0 0 0
7 6 5 3 3 2 1 0 0 1 2 3 3 2 1 0 0 0 0 0 0 0 1 1 0 0 0 0 0 0 0 0 0 0 0 0 0 0 0 0 0 0 0
7 6 4 3 3 2 1 0 0 0 1 1 2 1 0 0 0 0 0 0 0 0 0 0 0 0 0 0 0 0 0 0 0 0 0 0 0 0 0 0 0 0 0
7 6 4 2 1 1 0 0 0 0 0 0 0 0 0 0 0 0 0 0 0 0 0 0 0 0 0 0 0 0 0 0 0 0 0 0 0 0 0 0 0 0 0
6 5 4 1 0 0 0 0 0 0 0 0 0 0 0 0 0 0 0 0 0 0 0 0 0 0 0 0 0 0 0 0 0 0 0 0 0 0 0 0 0 0 0

GEFSMA_con_probscp_162.txt.gz
Probability
0 0 0 0 0 0 0 0 0 0 0 0 0 0 0 0 0 0 0 0 0 0 0 0 0 0 0 0 0 0 0 0 0 0 0 0 0 0 0 0 0 0 0
0 0 0 0 0 0 0 0 0 0 0 0 0 0 0 0 0 0 0 0 0 0 0 0 0 0 0 0 0 0 0 0 0 0 0 0 0 0 0 0 0 0 0
0 0 0 0 0 0 0 0 0 0 0 0 0 0 0 0 0 0 0 0 0 0 0 0 0 0 0 0 0 0 0 0 0 0 0 0 0 0 0 0 0 0 0
0 0 0 0 0 0 0 0 0 0 0 0 0 0 0 0 0 0 0 0 0 0 0 0 0 0 0 0 0 0 0 0 0 0 0 0 0 0 0 0 0 0 0
1 0 0 0 0 0 0 0 0 0 0 0 0 0 0 0 0 0 0 0 0 0 0 0 0 0 0 0 0 0 0 0 0 0 0 0 0 0 0 0 0 0 0
2 1 1 0 1 1 0 0 0 0 0 0 1 1 0 0 0 0 0 0 0 0 0 0 0 0 0 0 0 0 0 0 0 0 0 0 0 0 0 0 0 0 0
3 3 2 2 2 2 1 1 1 1 1 2 3 2 1 0 0 0 0 0 0 0 0 0 0 0 0 0 0 0 0 0 0 0 0 0 0 0 0 0 0 0 0
4 4 3 3 3 3 3 5 5 5 5 5 5 4 1 0 0 0 0 0 0 0 0 0 0 0 0 0 0 0 0 0 0 0 1 0 0 0 0 0 0 0 0
4 3 3 4 4 3 5 7 9 9 9 9 8 6 3 1 1 1 1 0 0 0 0 0 0 0 0 1 0 0 0 0 0 0 0 0 0 0 0 0 0 0 0
4 4 5 6 6 6 6 9 11 12 13 14 12 9 6 4 3 2 1 1 0 0 0 0 0 0 0 1 1 0 0 0 0 0 0 1 1 1 0 0 0 0 0
6 6 7 9 9 9 10 12 14 13 15 16 14 11 8 6 4 2 2 2 1 0 0 0 0 0 1 1 2 1 1 0 0 0 0 1 2 2 1 0 0 0 0
8 8 8 8 9 10 13 15 15 13 15 16 16 13 10 7 4 2 2 3 2 0 0 1 1 1 2 3 3 3 3 2 0 0 0 1 2 2 1 0 0 0 0
10 9 7 5 6 8 11 13 13 11 12 13 13 13 11 7 5 4 4 3 2 1 1 2 3 3 4 5 5 4 4 2 0 0 0 1 1 1 1 0 0 0 0
8 7 6 4 5 7 9 10 11 10 10 10 10 12 12 9 8 8 7 6 4 2 2 4 5 5 6 7 5 3 3 2 0 0 0 0 0 0 0 0 0 0 0
7 6 5 5 6 7 9 10 11 11 10 10 11 13 13 12 12 11 9 9 7 5 5 6 5 6 7 7 5 4 3 2 0 0 0 0 0 0 0 0 0 0 0
9 7 6 6 7 8 10 11 11 11 9 9 10 12 13 14 14 13 13 13 10 7 7 8 6 6 6 5 4 4 5 4 2 1 0 0 0 0 0 0 0 0 0
11 10 9 8 8 8 10 12 11 8 6 5 6 9 12 14 14 15 17 16 12 9 8 7 6 6 8 7 6 5 5 5 4 2 0 0 0 0 0 0 0 0 0
12 12 12 11 11 10 11 12 11 8 5 3 4 8 10 11 13 16 17 16 12 10 9 6 4 6 8 10 9 7 5 6 5 2 0 0 0 0 0 0 0 0 0
14 14 15 15 15 13 12 11 10 9 7 6 6 9 10 11 12 14 14 13 11 10 9 6 3 5 9 11 11 8 6 7 6 2 0 0 0 0 0 0 0 0 0
17 18 19 18 17 14 11 10 10 10 9 8 8 9 9 9 11 11 10 11 11 9 7 6 4 6 9 11 11 9 9 8 7 3 2 1 0 0 0 0 0 0 0
20 21 20 19 17 13 9 10 11 10 11 10 9 8 7 7 7 6 5 8 9 8 6 6 6 6 8 11 10 10 9 7 5 4 4 2 1 0 0 0 0 0 0
24 24 21 19 17 12 7 7 8 10 12 11 9 8 6 4 4 3 3 4 5 5 5 5 5 4 6 9 10 10 9 8 6 5 4 3 2 1 1 0 0 0 0
29 27 24 21 18 12 5 2 4 7 10 9 8 8 6 4 4 4 2 2 3 2 2 3 3 2 4 8 10 11 11 11 8 6 4 3 3 3 2 1 0 0 0
32 30 26 23 20 14 6 1 2 6 8 7 6 6 5 3 3 4 4 4 5 3 1 2 3 2 3 6 8 9 11 9 7 6 5 4 3 3 3 2 1 0 0
29 27 25 24 21 16 7 1 2 6 8 6 4 3 3 2 2 2 4 7 8 5 2 1 1 1 1 2 3 6 8 6 4 5 5 4 3 3 3 2 1 0 0
25 24 25 24 21 15 8 2 1 5 7 6 4 2 1 1 1 1 4 8 9 7 4 1 0 0 0 0 0 3 6 6 4 5 5 4 3 3 2 1 1 1 1

GEFSMA_con_probscp_168.txt.gz
Probability
0 0 0 1 0 0 0 0 0 0 0 0 0 0 0 0 0 0 0 0 0 0 0 0 0 0 0 0 0 0 0 0 0 0 0 0 0 0 0 0 0 0 0
0 0 0 1 0 0 1 1 1 1 0 0 0 0 0 0 0 0 0 0 0 0 0 0 0 0 0 0 0 0 0 0 0 0 0 0 0 0 0 0 0 0 0
2 1 1 0 0 1 2 4 4 3 1 0 0 0 0 1 1 1 0 0 0 0 0 0 0 0 0 0 0 0 0 0 0 0 0 0 0 0 0 0 0 0 0
5 4 2 1 2 2 3 3 4 3 2 1 0 1 2 3 2 2 1 0 0 0 1 1 1 1 0 0 0 1 1 0 0 0 0 0 0 0 0 0 0 0 0
9 8 6 4 4 3 2 2 2 2 3 2 1 2 5 5 4 3 2 1 0 1 2 2 2 2 1 1 1 2 2 1 1 1 1 0 0 0 0 0 0 0 0
12 13 11 9 7 5 3 3 3 3 3 3 1 3 5 6 5 4 2 1 1 2 3 4 5 4 3 3 3 3 3 3 4 5 3 1 0 0 0 0 0 0 0
15 16 15 14 10 7 6 5 4 4 4 3 3 4 5 5 5 4 3 1 1 3 4 6 8 8 6 5 3 3 3 4 4 6 5 2 0 0 0 0 0 0 0
17 18 18 15 10 7 6 7 6 5 5 5 5 5 4 3 3 3 3 3 3 4 5 6 10 11 9 7 4 2 3 4 4 5 4 2 1 0 0 0 0 0 0
18 19 18 13 8 5 6 9 9 8 8 7 7 6 4 2 1 1 2 4 5 6 5 6 9 12 13 11 8 5 4 4 4 5 4 3 2 1 0 0 0 0 0
19 20 18 14 9 6 6 8 10 12 13 11 10 8 6 4 2 1 1 2 4 5 5 5 6 11 16 17 13 9 6 5 5 5 6 6 4 3 2 1 1 1 1
19 20 19 17 13 8 6 7 10 14 16 14 13 10 8 7 5 2 1 0 2 3 6 6 6 11 18 20 16 12 9 7 5 6 7 8 7 7 5 4 3 2 2
21 21 21 21 19 13 10 10 12 14 16 17 16 12 9 8 7 3 1 1 2 5 10 13 12 13 18 19 16 13 10 6 4 4 5 6 8 9 8 6 4 4 4
23 23 24 25 24 19 15 14 14 14 15 18 18 13 11 10 8 5 3 2 4 7 12 15 15 16 18 18 14 11 8 5 2 1 1 2 4 5 5 5 4 3 3
22 25 29 31 28 23 21 20 18 15 16 17 15 13 13 12 10 9 7 5 5 6 9 12 15 16 19 19 14 9 8 4 1 0 0 0 1 1 2 3 2 1 1
21 26 32 34 30 26 25 26 25 21 20 20 15 13 14 15 13 12 12 10 5 3 4 8 13 15 17 16 14 12 11 6 1 0 0 0 0 0 0 1 1 0 0
22 26 31 31 29 27 27 30 31 27 24 21 16 13 15 15 13 12 13 12 7 3 2 6 11 14 13 11 13 17 17 10 3 0 0 0 0 0 0 0 0 0 0
25 26 27 29 28 27 28 32 32 29 24 19 14 12 13 14 12 11 12 12 9 5 4 6 10 12 11 10 13 17 17 12 5 1 0 0 0 0 0 0 0 0 0
31 29 29 30 30 29 29 29 29 25 21 14 10 10 12 13 12 10 11 12 9 7 6 8 10 10 10 10 12 13 12 9 5 1 0 0 0 0 0 0 0 0 0
36 36 35 32 30 27 25 23 22 20 15 10 8 9 11 13 12 10 10 12 11 8 8 10 10 10 9 9 9 8 7 6 4 1 0 0 0 0 0 0 0 0 0
39 39 37 32 26 21 18 16 15 13 10 8 7 7 8 9 9 9 9 11 12 10 10 11 11 10 10 9 9 7 5 3 2 1 0 0 0 0 0 0 0 0 0
41 40 36 30 23 18 14 12 11 11 10 10 9 8 7 5 4 5 5 7 10 10 11 11 10 9 8 9 9 7 3 1 1 1 1 0 0 0 0 0 0 0 0
46 43 36 30 24 16 10 8 9 11 13 13 13 12 8 3 1 1 2 2 4 7 8 8 8 6 7 7 6 4 2 0 0 0 0 0 0 1 1 1 0 0 0
56 52 44 36 27 16 8 5 6 8 12 14 15 13 9 5 2 1 1 1 1 2 3 4 4 4 5 5 4 3 2 1 1 0 0 0 0 1 2 2 1 0 0
63 59 51 41 30 19 9 4 4 5 8 11 12 11 10 8 5 3 2 1 1 1 1 2 2 2 3 4 4 3 4 3 2 1 1 0 0 1 1 1 1 0 0
61 58 51 42 33 21 10 5 4 6 8 8 8 8 8 8 4 2 1 1 2 3 2 1 1 1 1 2 2 3 4 5 4 3 3 1 0 0 0 0 0 0 0
58 54 49 42 34 23 11 4 4 7 10 10 8 6 5 4 2 0 1 1 2 3 4 2 1 1 0 0 1 1 3 5 5 5 4 2 1 0 0 0 0 0 0

GEFSMA_con_probscp_174.txt.gz
Probability
0 0 0 0 0 0 0 0 0 0 0 0 0 0 0 0 0 0 0 0 0 0 0 0 0 0 0 0 0 0 0 0 0 0 0 0 0 0 0 0 0 0 0
0 0 0 0 0 0 0 0 0 0 0 0 0 0 0 0 0 0 0 0 0 0 0 0 0 0 0 0 0 0 0 0 0 0 0 0 0 0 0 0 0 0 0
0 0 1 1 1 1 0 0 1 1 0 0 0 0 0 0 0 0 0 0 0 0 0 1 1 1 0 0 0 0 0 0 0 0 0 0 0 0 0 0 0 0 0
0 1 2 2 2 2 1 1 1 1 0 0 0 0 0 0 0 0 0 0 0 0 0 1 1 1 0 0 0 0 0 0 0 0 0 0 0 0 0 0 0 0 0
0 1 2 3 3 3 2 1 1 1 0 0 0 0 0 0 0 0 0 0 0 0 0 0 0 0 1 1 1 1 0 0 0 0 0 0 0 0 0 0 0 0 0
0 1 2 3 3 3 3 1 0 0 0 0 0 0 0 0 0 0 0 0 0 0 0 0 0 0 2 3 4 4 3 3 2 1 0 0 0 0 0 0 0 0 0
0 1 2 3 3 3 3 2 0 0 0 1 1 1 0 0 0 0 0 0 0 0 0 0 0 0 1 3 5 7 7 7 6 4 2 1 0 0 0 0 0 0 0
1 1 2 3 3 3 2 1 0 1 1 2 2 1 0 0 0 0 0 0 0 0 0 0 0 0 0 1 3 6 7 7 7 8 6 3 2 1 0 0 0 0 0
3 3 3 3 3 2 1 0 1 2 3 3 2 1 0 0 0 0 0 0 0 0 0 0 0 0 0 0 0 2 4 6 7 8 8 6 4 3 2 1 1 1 0
5 5 4 4 3 1 0 1 2 3 5 5 3 2 1 0 0 0 0 0 0 0 0 0 0 0 0 0 0 0 2 4 6 7 7 6 6 5 5 4 3 2 1
5 5 4 3 2 1 1 1 3 4 5 5 4 2 1 0 0 0 0 0 0 0 0 0 0 0 0 0 0 0 0 2 4 5 4 4 6 7 6 6 5 4 2
5 4 3 2 1 2 2 3 3 4 5 5 4 3 1 1 0 0 0 0 0 0 0 0 0 0 0 0 0 0 0 0 1 1 1 2 5 7 7 6 5 3 2
7 6 4 2 2 2 3 3 4 5 5 5 4 3 3 2 1 0 0 0 0 0 0 0 0 0 0 0 0 0 1 0 0 0 0 1 2 5 6 6 5 3 2
9 9 7 5 4 3 2 3 4 4 4 4 4 3 3 2 1 0 0 0 0 0 0 0 0 0 0 0 0 0 1 0 0 0 0 0 0 2 3 4 5 3 2
8 9 9 8 7 5 4 3 3 4 4 3 3 3 2 1 0 0 0 0 0 0 0 0 0 0 0 0 0 0 1 0 0 0 0 0 0 0 1 1 2 2 2
6 7 8 8 8 8 7 5 4 4 4 4 3 1 1 0 0 0 0 0 0 0 0 0 0 0 0 0 0 0 0 0 0 0 0 0 0 0 0 0 0 1 1
5 5 5 6 8 9 10 8 6 5 5 5 4 2 1 0 0 0 0 0 0 0 0 0 0 0 0 0 0 0 0 0 0 0 0 0 0 0 0 0 0 0 0
5 5 5 6 8 10 10 8 6 6 6 6 5 4 2 1 0 0 0 0 0 0 0 0 0 0 0 0 0 0 0 0 0 0 0 0 0 0 0 0 0 0 0
7 8 7 8 9 10 9 7 6 6 6 6 6 5 4 2 1 0 0 0 0 0 0 0 0 0 0 0 0 0 0 0 0 0 0 0 0 0 0 0 0 0 0
13 11 9 9 10 10 8 7 6 6 6 6 6 6 5 4 1 0 0 0 1 1 1 0 0 0 0 0 0 0 0 0 0 0 0 0 0 0 0 0 0 0 0
15 13 10 10 11 10 7 6 6 6 6 6 6 6 5 4 2 0 0 0 1 1 1 0 0 0 0 0 0 0 0 0 0 0 0 0 0 0 0 0 0 0 0
14 12 10 11 12 9 6 4 4 4 4 4 4 4 4 3 1 0 0 0 0 0 0 0 0 0 0 0 0 0 0 0 0 0 0 0 0 0 0 0 0 0 0
14 12 12 13 12 8 4 3 2 3 3 3 3 4 4 3 1 1 1 0 0 0 0 0 0 0 0 0 0 0 0 0 0 0 0 0 0 0 0 0 0 0 0
16 14 14 14 12 8 4 2 1 2 3 3 3 3 3 3 2 2 2 1 0 0 0 0 0 0 0 0 0 0 0 0 0 0 0 0 0 0 0 0 0 0 0
19 17 15 14 12 9 5 2 0 2 3 3 3 3 2 2 2 2 1 1 1 0 0 0 0 0 0 0 0 0 0 0 0 0 0 0 0 0 0 0 0 0 0
22 19 17 15 13 11 7 2 0 1 3 3 3 2 1 1 1 1 1 1 1 0 0 0 0 0 0 0 0 0 0 0 0 0 0 0 0 0 0 0 0 0 0

GEFSMA_con_probscp_180.txt.gz
Probability
0 0 0 0 0 0 0 0 0 0 0 0 0 0 0 0 0 0 0 0 0 0 0 0 0 0 0 0 0 0 0 0 0 0 0 0 0 0 0 0 0 0 0
0 0 0 0 0 0 0 0 0 0 0 0 0 0 0 0 0 0 0 0 0 0 0 0 0 0 0 0 0 0 0 0 0 0 0 0 0 0 0 0 0 0 0
0 0 0 0 0 0 0 0 0 0 0 0 0 0 0 0 0 0 0 0 0 0 0 0 0 0 0 0 0 0 0 0 0 0 0 0 0 0 0 0 0 0 0
0 0 0 0 0 0 0 0 0 0 0 0 0 0 0 0 0 0 0 0 0 0 0 0 1 1 0 0 0 0 0 0 0 0 0 0 0 0 0 0 0 0 0
0 0 0 0 0 0 0 0 0 0 0 0 0 0 0 0 0 0 0 0 0 0 0 1 2 2 1 1 0 0 0 0 0 0 0 0 0 0 0 0 0 0 0
0 0 0 0 0 0 0 0 0 0 0 0 0 0 0 0 0 0 0 0 0 0 0 0 1 1 1 1 1 1 0 0 0 0 0 1 1 1 1 1 0 0 0
1 0 0 0 0 0 0 0 0 0 1 1 1 0 0 0 0 0 0 0 0 0 0 0 0 0 1 1 1 2 1 1 1 1 1 2 3 3 2 2 1 1 0
1 1 0 0 0 1 1 1 1 1 2 2 2 1 0 0 0 0 0 0 0 0 0 0 0 0 0 0 0 1 1 1 2 2 3 3 3 3 3 3 3 2 1
1 1 0 0 1 2 2 2 2 2 3 3 3 2 1 0 0 0 0 0 0 0 0 0 0 0 0 0 0 0 0 1 2 2 2 2 2 2 3 3 3 3 3
1 1 0 0 1 2 3 3 3 3 3 3 3 3 2 1 0 0 0 0 0 0 0 0 0 0 0 0 0 0 0 0 1 1 1 1 2 2 3 4 4 3 3
1 0 0 0 1 1 2 2 2 2 3 3 3 3 2 1 1 1 1 0 0 0 0 0 0 0 0 0 0 0 0 0 0 0 0 1 1 2 3 3 4 3 2
1 0 0 0 0 0 1 1 1 1 1 2 2 2 1 1 2 2 2 1 0 0 0 0 0 0 0 0 0 0 0 0 0 0 0 0 0 0 1 3 4 3 3
0 0 0 0 0 0 0 0 0 0 0 1 2 1 1 2 3 3 2 1 0 0 0 0 0 0 0 0 0 0 0 0 0 0 0 0 0 0 1 3 3 3 3
0 0 0 0 0 0 0 0 0 0 1 2 2 2 1 1 2 2 1 1 0 0 0 0 0 0 0 0 0 0 0 0 0 0 0 0 0 0 0 1 1 2 3
1 1 1 0 0 0 0 0 1 1 2 3 3 3 2 1 1 1 1 1 0 0 0 0 0 0 0 0 0 0 0 0 0 0 0 0 0 0 0 0 0 0 1
2 1 0 0 0 0 0 0 1 2 3 3 3 3 3 3 2 1 1 1 0 0 0 0 0 0 0 0 0 0 0 0 0 0 0 0 0 0 0 0 0 0 0
2 1 1 1 0 0 0 1 2 3 3 3 3 4 4 4 3 2 1 1 0 0 0 0 0 0 0 0 0 0 0 0 0 0 0 0 0 0 0 0 0 0 0
2 2 2 2 1 1 2 4 4 4 4 4 4 5 5 5 5 3 1 1 0 0 0 0 0 0 0 0 0 0 0 0 0 0 0 0 0 0 0 0 0 0 0
5 5 4 4 3 4 6 7 7 6 6 6 6 6 6 6 6 5 3 2 1 1 0 0 0 0 0 0 0 0 0 0 0 0 0 0 0 0 0 0 0 0 0
9 8 6 6 6 7 8 9 9 8 7 6 6 5 5 5 5 5 4 3 2 2 1 0 0 0 0 0 0 0 0 0 0 0 0 0 0 0 0 0 0 0 0
11 10 8 8 8 8 8 8 8 8 7 5 4 4 4 4 4 3 3 2 2 3 2 1 0 0 0 0 0 0 0 0 0 0 1 0 0 0 0 0 0 0 0
11 11 10 9 9 8 6 4 5 6 6 4 3 3 3 3 3 3 1 0 1 2 2 1 0 0 0 0 0 0 0 0 0 0 0 0 0 0 0 0 0 0 0
12 12 12 10 8 6 3 2 1 3 3 3 3 3 3 2 2 2 1 1 1 2 1 0 0 0 0 0 0 0 0 0 0 0 0 0 0 0 0 0 0 0 0
14 14 12 10 7 4 2 1 0 1 1 2 3 3 3 1 1 2 2 2 3 3 1 0 0 0 0 0 0 0 0 0 0 0 0 0 0 0 0 0 0 0 0
15 14 12 9 6 4 2 1 1 0 0 1 2 2 2 1 1 1 2 2 3 3 1 0 0 0 0 0 0 0 0 0 0 0 0 0 0 0 0 0 0 0 0
16 14 12 9 6 4 2 2 2 1 0 1 1 1 1 1 0 0 1 1 2 2 1 0 0 0 0 0 0 0 0 0 0 0 0 0 0 0 0 0 0 0 0

GEFSMA_con_probscp_186.txt.gz
Probability
0 0 1 1 0 0 0 0 1 2 2 1 1 0 0 0 0 0 0 0 0 0 0 0 0 0 0 0 0 1 0 0 0 0 0 0 0 0 0 0 0 0 0
1 1 2 2 1 0 0 0 1 1 1 1 1 0 0 0 0 0 0 0 0 0 0 0 0 0 0 0 0 1 0 0 0 0 0 0 0 0 0 0 0 0 0
3 3 3 3 1 0 0 0 0 0 0 0 0 0 0 0 0 0 0 0 0 0 1 1 1 1 1 1 0 0 0 0 0 0 0 0 0 0 0 0 0 0 0
4 5 4 3 2 1 0 0 0 0 0 0 0 0 0 0 0 0 0 0 0 0 1 2 2 3 2 1 0 0 1 1 0 0 0 0 0 0 0 0 0 0 0
5 6 5 4 3 1 0 0 0 0 0 0 0 0 0 0 0 0 0 0 0 0 1 2 3 3 3 2 1 1 1 2 1 0 0 0 0 0 0 0 0 0 0
6 6 6 6 4 2 1 0 1 1 1 0 0 0 0 0 0 0 0 0 0 0 0 2 4 4 3 2 1 0 1 3 3 2 1 1 1 0 0 0 0 0 0
6 6 7 9 7 4 2 2 2 2 1 1 1 0 0 0 0 0 0 0 0 0 0 2 4 5 5 3 1 1 2 3 4 4 4 3 2 1 1 1 0 1 1
6 7 9 11 10 8 6 5 4 3 3 2 2 1 0 0 0 0 0 1 0 0 0 2 4 5 6 5 3 2 4 5 4 5 6 6 5 3 2 2 2 2 2
6 6 8 10 11 10 9 7 5 4 3 3 2 1 0 1 1 1 1 1 1 1 1 2 3 5 7 8 6 4 4 5 4 5 7 7 6 4 2 2 3 3 3
4 5 7 9 11 11 10 8 6 5 3 1 1 1 0 1 2 3 2 2 2 2 2 2 2 4 7 10 9 6 3 2 2 3 5 7 6 3 1 2 3 3 2
4 4 6 9 11 11 9 7 7 6 4 3 3 3 2 2 3 4 5 5 4 3 3 3 3 4 6 9 10 6 3 1 0 1 3 3 3 3 2 2 3 3 3
6 5 7 11 13 11 9 8 8 8 7 6 6 5 3 3 3 5 6 6 6 5 5 5 5 4 5 7 8 5 2 0 0 0 1 1 1 2 2 2 2 3 3
9 8 9 11 13 12 9 8 8 8 8 8 8 7 5 3 4 5 6 6 6 6 6 7 7 7 7 9 8 3 1 0 0 0 0 0 0 1 1 1 1 1 2
12 12 11 12 11 10 7 6 6 6 6 7 7 7 6 5 4 4 5 5 5 6 6 7 8 9 10 11 7 4 2 1 0 0 0 0 0 0 0 0 0 1 2
16 16 16 14 11 8 5 3 3 4 5 5 5 6 6 6 6 6 6 6 6 6 6 6 7 9 11 9 5 5 6 3 0 0 0 0 0 0 0 0 0 0 1
20 20 19 16 12 8 5 4 4 6 7 7 7 8 8 9 9 9 9 9 9 9 7 6 7 9 11 8 4 5 8 7 3 1 0 0 0 0 0 0 0 0 0
24 23 20 17 13 9 7 7 9 11 11 11 12 11 10 11 12 12 11 10 10 10 8 6 6 9 12 11 8 7 7 8 5 1 0 0 0 0 0 0 0 0 0
31 29 24 19 15 12 11 12 13 14 15 15 14 13 11 12 13 12 9 9 9 9 7 6 5 7 10 12 12 9 7 6 5 2 0 0 0 0 0 0 0 0 0
37 36 32 27 22 18 16 15 15 15 15 14 13 12 12 12 12 10 8 7 7 6 6 5 4 5 7 10 12 9 7 8 6 2 1 0 0 0 0 0 0 0 0
40 40 38 34 29 24 19 16 15 15 14 12 12 12 12 12 11 9 7 6 6 6 6 6 6 6 8 10 11 9 8 10 8 5 3 2 2 2 1 0 0 0 0
43 43 41 37 32 24 15 12 13 14 15 14 13 12 12 10 8 7 5 5 5 6 8 10 10 11 11 12 12 9 8 10 10 8 7 6 5 4 2 1 0 0 0
46 45 41 36 28 18 10 7 9 13 16 15 13 12 10 8 6 4 3 2 2 4 8 11 12 12 12 12 12 10 9 9 9 9 7 6 5 5 3 1 0 0 0
49 45 40 34 25 13 6 3 5 11 15 14 12 10 9 7 6 5 4 2 2 4 6 9 11 11 11 11 11 10 9 7 6 5 5 4 3 3 3 2 1 0 0
51 45 38 32 23 12 5 2 4 10 14 13 11 10 10 9 8 7 6 5 6 6 6 6 7 7 7 8 8 8 7 5 4 3 3 2 2 2 3 2 1 0 0
50 44 37 31 23 15 7 2 4 10 14 14 13 11 9 8 6 4 5 7 8 7 5 3 3 3 3 3 3 4 4 4 3 3 3 1 1 2 2 2 1 1 0
48 43 36 31 26 18 9 2 4 11 16 15 15 12 7 4 2 1 4 6 8 6 2 0 0 0 0 0 0 1 3 3 2 3 2 1 0 1 2 2 2 2 1

GEFSMA_con_probscp_192.txt.gz
Probability
3 3 4 4 3 1 1 3 4 3 2 1 0 0 0 0 1 2 3 2 1 0 0 0 0 1 2 3 3 2 1 0 0 0 0 0 0 0 0 0 0 0 0
3 3 4 5 3 1 1 2 3 2 1 0 0 0 0 0 0 1 2 2 2 2 2 1 1 2 3 4 4 3 2 1 0 0 0 0 0 0 0 0 0 0 0
5 4 4 5 5 2 1 1 1 1 0 0 0 0 0 0 0 1 1 3 4 6 7 6 4 5 8 8 7 5 4 1 0 0 0 0 0 0 0 0 0 0 0
7 6 6 6 6 4 3 1 0 0 0 0 1 0 0 1 1 2 2 4 6 9 12 13 11 12 12 13 11 8 6 4 2 1 1 0 0 0 0 0 0 0 0
8 9 9 8 7 5 4 2 0 0 1 1 1 0 1 2 3 4 5 6 9 12 14 16 17 17 16 15 14 12 10 8 6 4 2 1 0 0 0 0 0 0 0
10 11 12 11 8 6 4 2 1 1 2 2 1 1 2 4 6 7 6 7 10 13 15 18 20 19 16 14 14 14 13 12 11 9 6 3 1 1 0 0 0 0 0
14 14 14 14 12 9 6 4 3 2 3 4 3 2 2 4 7 8 7 7 9 11 13 18 23 23 18 14 12 13 14 15 15 14 10 6 4 3 1 1 1 1 0
23 20 18 18 16 14 11 8 6 4 3 4 4 3 1 2 3 4 6 7 8 9 10 15 23 27 25 18 12 12 16 18 18 16 13 10 7 5 3 2 2 2 1
33 29 24 22 19 17 15 12 9 7 5 3 3 2 1 1 0 1 4 6 8 10 8 10 17 24 28 26 21 18 19 21 21 18 15 14 12 8 5 4 4 3 3
37 34 31 27 23 19 17 14 10 8 7 4 2 3 3 3 2 1 2 4 7 9 9 8 10 18 24 27 26 24 21 20 21 19 18 17 15 10 7 6 5 4 3
37 36 35 33 29 22 19 18 14 10 9 5 3 3 4 5 4 3 2 3 5 8 10 9 11 15 19 20 21 21 17 15 15 16 16 16 15 12 9 8 7 5 4
37 38 38 37 32 24 22 23 20 15 12 8 5 4 3 4 4 4 3 3 5 9 13 14 14 16 15 13 14 13 11 9 8 8 8 9 10 10 9 9 8 6 4
33 38 41 39 31 23 22 25 23 20 17 13 8 5 4 4 5 5 5 5 6 10 15 15 15 15 13 11 10 8 6 5 3 2 2 3 4 5 5 5 4 4 3
31 38 43 38 30 23 20 20 20 19 21 18 13 10 9 8 8 8 8 7 7 8 11 13 13 13 11 8 6 5 4 3 1 0 0 0 0 1 1 1 1 1 1
35 41 44 38 30 25 20 18 16 17 21 22 18 17 15 11 10 10 9 9 7 6 6 8 10 9 7 5 4 3 4 2 0 0 0 0 0 0 0 0 0 0 0
42 46 46 39 33 29 25 20 18 19 22 23 21 20 18 13 10 9 9 10 9 7 5 6 6 4 3 3 3 4 4 3 1 0 0 0 0 0 0 0 0 0 0
46 47 44 40 37 35 32 27 23 22 23 23 21 19 17 15 12 10 10 11 11 9 7 5 4 4 4 4 4 5 5 4 3 1 0 0 0 0 0 0 0 0 0
46 44 42 41 41 41 39 34 28 25 25 24 21 19 17 16 15 14 13 13 13 11 9 7 5 6 7 6 5 6 6 4 3 1 0 0 0 0 0 0 0 0 0
43 43 43 43 43 45 44 39 34 31 29 27 24 22 19 17 16 16 16 16 14 12 10 8 7 7 7 6 5 5 4 3 1 0 0 0 0 0 0 0 0 0 0
45 46 47 46 46 48 45 41 37 34 32 29 25 22 19 15 13 14 14 14 14 13 12 11 9 9 8 6 5 4 3 2 1 1 1 0 0 0 0 0 0 0 0
54 54 54 51 49 46 41 36 36 36 35 30 26 22 16 10 9 8 8 9 10 11 12 13 12 11 9 7 7 5 3 3 3 3 3 1 0 0 0 0 0 0 0
64 61 58 54 48 40 31 28 31 36 35 30 26 22 14 8 6 6 5 4 5 6 8 11 11 10 9 9 8 7 5 4 3 4 4 2 1 1 0 0 0 0 0
64 60 56 53 46 34 24 19 23 31 31 27 24 21 15 10 8 8 7 5 4 3 5 7 8 8 8 9 9 7 6 5 4 4 3 3 2 2 1 0 0 0 0
58 56 53 52 44 30 18 13 16 23 26 23 22 20 17 13 10 9 9 9 7 5 4 4 4 4 5 7 7 6 6 6 5 5 4 3 3 2 1 1 0 0 0
56 54 51 50 44 30 16 9 12 20 23 22 20 19 16 13 9 7 8 10 10 8 4 2 1 1 2 2 2 3 4 5 5 6 6 4 2 2 2 2 1 0 0
55 52 50 50 45 32 17 8 10 18 22 21 20 17 14 10 7 4 5 9 11 10 5 1 0 0 0 0 0 1 2 4 4 6 6 4 2 2 3 2 1 0 0

GEFSMA_con_probscp_198.txt.gz
Probability
0 0 0 0 0 1 1 1 0 0 0 0 0 0 0 0 0 0 0 0 0 0 1 1 1 0 0 1 1 2 2 1 0 0 0 0 0 0 0 0 0 0 0
0 0 0 0 0 0 0 0 0 0 0 0 0 0 0 0 0 0 0 0 0 1 3 3 2 1 1 1 2 2 2 2 1 0 0 0 0 0 0 0 0 0 0
1 0 0 0 0 0 0 0 0 0 0 0 0 0 0 0 0 0 0 0 0 2 4 5 5 4 3 3 2 3 4 4 2 1 1 1 1 0 0 0 0 0 0
2 1 0 0 0 0 0 0 0 0 0 0 0 0 0 0 0 0 0 0 0 1 2 5 7 6 6 6 5 5 5 5 3 2 2 2 2 1 0 0 0 0 0
2 1 0 0 0 0 0 0 0 0 0 0 0 0 0 0 0 0 0 0 0 0 0 3 5 6 6 8 8 8 7 6 4 4 5 4 2 1 0 0 0 0 0
2 1 1 1 0 0 0 0 0 0 0 0 0 0 0 0 0 0 0 0 0 0 0 1 2 2 4 7 10 11 10 9 8 9 9 6 3 2 1 1 0 0 0
3 2 2 2 1 0 0 0 0 0 0 0 0 0 0 0 0 0 0 0 0 0 0 0 0 0 1 4 8 12 14 14 14 13 11 8 6 4 3 2 1 1 0
5 5 4 3 2 0 0 0 0 0 0 0 0 0 0 0 0 0 0 0 0 0 0 0 0 0 0 1 4 8 13 15 15 14 12 10 9 6 3 2 2 2 1
6 5 4 3 1 0 0 0 0 0 0 0 0 0 0 0 0 0 0 0 0 0 0 0 0 1 1 1 1 4 7 10 12 12 12 13 13 8 4 2 2 2 2
4 4 4 3 2 1 1 1 0 0 0 0 0 0 0 0 0 0 0 0 0 0 0 0 0 1 1 2 3 3 3 5 7 9 11 14 15 12 8 5 4 2 1
2 3 5 5 5 4 3 2 1 0 0 0 0 0 0 0 0 0 0 0 0 0 0 0 0 0 1 2 3 2 1 1 3 5 8 11 13 12 11 10 8 5 2
3 4 6 7 8 9 7 3 1 0 0 0 0 0 0 0 0 0 0 0 0 0 0 0 0 0 0 0 1 1 0 0 0 1 3 6 9 9 9 10 10 8 5
5 5 7 9 11 12 10 5 2 2 2 2 1 1 0 0 0 0 0 0 0 0 0 0 0 0 0 0 0 0 0 0 0 0 0 2 3 4 5 7 7 6 5
8 8 11 13 14 14 12 8 5 4 4 4 3 2 1 0 0 0 0 0 0 0 0 0 0 0 0 0 0 0 0 0 0 0 0 0 1 1 2 3 4 3 3
11 12 15 16 15 14 13 11 9 7 7 6 4 2 1 0 0 0 1 1 1 1 1 1 0 0 0 0 0 0 0 0 0 0 0 0 0 0 1 1 2 1 1
14 17 18 17 15 13 13 13 11 9 8 7 5 3 1 1 1 1 2 3 3 3 2 1 0 0 0 0 0 0 0 0 0 0 0 0 0 0 0 0 0 0 0
20 22 22 18 15 14 15 15 12 9 8 7 6 4 3 2 2 2 2 3 3 2 2 1 0 0 0 0 0 0 0 0 0 0 0 0 0 0 0 0 0 0 0
22 24 24 21 18 17 19 18 15 11 9 8 6 5 4 3 3 2 1 1 1 1 1 0 0 0 0 0 0 0 0 0 0 0 0 0 0 0 0 0 0 0 0
20 22 23 22 22 22 22 21 18 14 11 10 8 7 6 5 4 2 1 1 1 1 1 0 0 0 0 0 1 1 0 0 0 0 0 0 0 0 0 0 0 0 0
17 19 22 23 24 25 23 20 19 17 15 13 11 11 9 7 5 3 3 2 2 2 2 1 1 1 0 1 2 2 1 1 0 0 0 0 0 0 0 0 0 0 0
16 18 21 22 23 23 20 18 18 20 18 15 13 12 11 8 6 4 3 3 3 4 3 3 2 2 1 1 2 3 3 2 1 0 0 0 0 0 0 0 0 0 0
22 21 21 21 21 20 17 15 16 18 18 16 13 11 10 9 7 5 4 3 3 3 3 3 3 3 3 2 2 2 3 3 2 1 0 0 0 0 0 0 0 0 0
28 27 26 25 22 19 16 13 13 14 15 14 11 9 8 8 7 6 4 3 2 2 3 3 3 3 3 2 1 1 3 3 2 1 0 0 0 0 0 0 0 0 0
32 31 30 28 24 18 14 10 10 12 12 10 9 8 6 4 5 5 4 3 3 3 3 3 2 2 2 1 0 1 2 2 2 1 0 0 0 0 0 0 0 0 0
32 31 31 30 26 20 13 8 9 11 11 9 7 6 4 2 2 3 3 3 3 3 2 1 1 1 1 0 0 0 1 1 1 0 0 0 0 0 0 0 0 0 0
32 29 30 32 29 22 13 7 8 11 12 9 7 6 4 2 2 1 1 2 3 3 1 0 0 0 0 0 0 0 0 0 0 0 0 0 0 0 0 0 0 0 0

GEFSMA_con_probscp_204.txt.gz
Probability
0 0 0 0 0 0 0 0 0 0 0 0 0 0 0 0 0 0 0 0 0 0 0 0 1 1 0 0 1 0 0 0 0 0 0 0 0 0 0 0 0 0 0
0 0 0 0 0 0 0 0 0 0 0 0 0 0 0 0 0 0 0 0 0 0 0 1 2 2 1 1 1 1 1 1 1 0 0 0 0 0 0 0 0 0 0
0 0 0 0 0 0 0 0 0 0 0 0 0 0 0 0 0 0 0 0 0 0 0 1 2 3 2 2 2 3 3 3 3 1 1 1 0 0 0 0 0 0 0
0 0 0 0 0 0 0 0 0 0 0 0 0 0 0 0 0 0 0 0 0 0 0 0 2 3 3 3 2 3 4 5 5 4 3 2 1 0 0 0 0 0 0
0 0 0 0 0 0 0 0 0 0 0 0 0 0 0 0 0 0 0 0 0 0 0 0 1 2 2 2 2 1 3 5 6 6 5 4 3 1 1 1 0 0 0
0 0 0 0 0 0 0 0 0 0 0 0 0 0 0 0 0 0 0 0 0 0 0 0 1 1 1 1 2 1 2 3 5 7 7 6 6 4 3 3 2 0 0
0 0 0 0 0 0 0 0 0 0 0 0 0 0 0 0 0 0 0 0 0 0 0 0 0 0 0 1 2 2 2 2 5 7 8 8 8 7 6 5 4 2 1
0 0 0 0 0 0 0 1 1 0 1 1 1 0 0 0 0 0 0 0 0 0 0 0 0 0 0 1 1 1 1 2 3 6 7 7 7 6 6 5 4 4 4
0 0 0 0 0 1 1 2 2 2 2 2 2 1 1 1 1 0 0 0 0 0 0 0 0 0 0 1 1 1 1 1 2 4 4 3 3 3 4 5 6 5 5
0 1 1 0 1 2 2 3 3 3 3 3 3 3 2 2 1 0 0 0 0 0 0 0 0 0 0 1 1 0 0 0 1 1 1 1 1 1 2 5 7 6 5
1 2 2 1 1 3 3 3 3 3 3 3 3 3 3 2 1 0 0 0 0 0 0 0 0 0 0 0 0 0 0 0 0 0 0 0 0 0 1 4 6 6 5
1 2 2 2 2 4 5 4 4 4 3 3 3 4 4 3 2 1 1 0 0 0 0 0 0 0 0 0 0 0 0 0 0 0 0 0 0 0 1 3 4 4 5
3 4 4 4 4 6 6 5 5 5 4 3 4 5 5 5 5 4 3 1 0 0 0 0 0 0 0 0 0 0 0 0 0 0 0 0 0 0 1 2 2 3 5
5 5 6 7 7 6 5 5 6 5 4 3 3 4 5 5 5 5 4 2 0 0 0 0 0 0 1 0 0 0 0 0 0 0 0 0 0 0 0 1 1 2 3
6 6 6 7 8 7 6 7 7 6 5 4 3 3 4 3 2 2 1 1 0 0 0 0 0 1 1 0 0 0 0 0 0 0 0 0 0 0 0 0 0 1 1
6 6 6 7 8 9 9 9 9 8 7 6 4 3 3 3 1 0 0 0 0 0 0 0 0 1 0 0 0 0 0 0 0 0 0 0 0 0 0 0 0 0 0
5 6 7 9 9 9 9 9 9 10 10 8 6 4 4 4 3 2 2 2 1 1 1 1 0 0 0 0 0 0 0 0 0 0 0 0 0 0 0 0 0 0 0
7 8 9 10 10 10 9 8 9 12 13 12 8 6 6 5 5 5 5 5 5 3 3 3 1 1 0 0 0 0 0 0 0 0 0 0 0 0 0 0 0 0 0
12 12 11 11 12 11 10 10 11 13 15 14 10 7 7 7 7 7 8 8 7 6 5 4 3 2 1 0 0 0 0 0 0 0 1 1 1 0 0 0 0 0 0
16 16 15 14 14 13 13 12 12 13 14 12 9 8 9 9 9 9 9 9 8 7 6 4 3 3 2 1 0 0 0 0 0 1 2 2 2 1 0 0 0 0 0
16 17 17 16 16 15 14 12 12 12 11 10 9 10 11 12 11 10 10 9 8 8 6 5 4 4 4 3 2 2 1 1 0 1 2 3 3 2 1 1 0 0 0
17 17 17 17 17 16 13 10 9 11 11 11 10 11 12 13 12 11 9 8 7 7 7 7 6 6 6 5 4 3 3 2 1 1 2 3 3 3 3 2 1 0 0
19 20 19 19 18 16 12 6 6 9 12 11 11 11 12 12 12 11 9 7 5 4 5 6 6 6 6 6 6 4 3 2 2 1 1 1 3 3 3 2 1 0 0
21 22 22 21 20 16 10 4 4 9 11 10 9 10 10 10 9 9 7 5 3 2 2 3 4 5 5 5 4 3 2 1 1 1 0 1 2 3 3 2 1 0 0
20 20 21 23 22 17 10 4 4 9 10 9 7 7 7 6 5 4 4 3 2 1 1 1 1 2 2 2 1 1 1 0 0 0 0 0 1 1 2 2 1 0 0
18 17 19 23 22 17 11 4 4 9 10 8 6 4 4 4 2 2 2 1 1 2 2 1 0 0 0 0 0 0 0 0 0 0 0 0 0 0 1 2 1 0 0

GEFSMA_con_probscp_210.txt.gz
Probability
0 1 1 0 0 0 1 1 1 0 0 0 0 0 0 0 0 0 0 0 0 0 0 0 0 0 0 1 1 1 1 0 0 0 0 0 0 0 0 0 0 0 0
1 2 2 1 0 0 0 0 0 0 0 0 0 0 0 0 0 0 0 0 0 0 0 0 0 0 0 1 2 2 2 1 1 0 0 0 0 0 0 0 0 0 0
1 2 3 3 1 1 1 1 1 1 1 1 1 0 0 0 0 0 0 0 0 0 0 0 0 0 0 1 1 1 2 2 2 1 0 0 0 0 0 0 0 0 0
2 2 3 4 4 4 4 3 2 2 2 3 2 1 0 0 0 0 0 0 0 0 1 0 0 0 1 1 1 0 1 2 3 2 1 1 0 0 0 0 0 0 0
2 2 3 4 5 6 6 4 2 3 3 3 3 2 0 0 0 0 0 0 0 0 0 0 0 0 2 3 2 1 1 1 2 2 2 1 0 0 0 1 1 0 0
3 3 2 3 3 4 4 3 3 4 4 3 2 1 0 0 0 0 0 0 0 0 0 0 0 0 1 3 3 2 2 3 3 2 2 1 1 1 1 2 2 1 1
2 2 2 1 1 1 2 2 4 7 7 4 1 0 0 0 0 0 0 0 0 0 0 0 0 0 1 2 2 2 4 5 5 4 3 2 3 2 2 2 2 2 2
1 1 2 1 1 1 2 4 7 9 8 6 4 2 1 1 1 0 0 0 0 0 0 0 0 1 1 2 2 2 4 5 5 4 3 2 3 3 3 3 3 2 2
0 1 3 3 3 3 5 7 9 10 10 9 9 7 4 2 1 1 1 1 1 1 1 1 1 2 3 4 3 3 4 4 3 2 2 2 2 2 2 3 3 4 4
1 2 4 6 8 8 8 8 8 9 11 12 12 11 9 6 5 4 3 2 3 3 4 4 4 4 4 5 5 4 4 4 2 1 2 2 1 0 1 1 2 4 5
2 3 4 8 9 8 8 8 7 8 11 13 13 13 12 11 9 8 6 5 4 5 6 7 7 6 4 4 5 5 3 2 1 0 1 2 2 1 1 1 1 1 2
3 3 4 6 6 4 4 5 6 8 10 12 12 12 12 12 12 11 9 8 7 6 7 8 8 8 7 6 5 5 2 0 0 0 0 1 2 2 1 1 1 1 1
4 4 4 4 3 2 2 4 6 10 12 13 12 10 9 9 10 11 10 9 8 7 7 8 9 10 10 9 7 5 3 1 0 0 0 1 1 1 0 0 1 2 2
6 6 6 5 4 3 4 6 8 12 15 15 14 11 9 8 9 9 8 7 6 6 6 7 9 10 12 11 8 5 4 2 0 0 0 0 0 0 0 0 1 1 1
12 11 9 7 6 6 7 9 11 13 16 18 17 16 14 12 10 10 8 7 5 4 4 6 7 9 10 10 7 6 6 4 1 0 0 0 0 0 0 0 0 0 0
15 15 12 9 8 8 10 12 13 14 17 19 21 21 19 16 15 14 12 10 9 7 6 6 7 8 9 8 7 7 7 5 2 1 0 0 0 0 0 0 0 0 0
17 17 16 13 11 11 11 13 15 15 17 20 23 24 22 21 21 20 17 15 14 13 11 10 10 10 9 9 10 10 8 6 5 2 0 0 0 0 0 0 0 0 0
18 18 19 18 15 14 14 15 17 18 18 20 23 25 25 26 27 24 21 17 16 16 16 15 15 14 11 10 12 11 8 6 6 3 0 0 0 0 0 0 0 0 0
19 20 22 22 20 18 17 18 21 22 20 19 22 24 26 29 31 28 24 20 18 19 20 19 19 18 15 12 13 12 9 7 5 2 0 0 0 0 0 0 0 0 0
20 22 24 24 23 20 19 21 23 22 21 21 22 23 24 28 29 27 25 22 21 21 21 20 20 21 19 16 16 14 11 10 8 5 3 2 1 1 0 0 0 0 0
24 25 26 27 26 22 19 20 21 21 22 25 27 27 25 25 24 21 19 20 21 20 19 18 19 20 19 18 17 14 13 12 12 10 7 3 2 2 1 1 1 0 0
31 31 30 30 28 22 16 14 17 22 26 29 33 31 27 25 22 17 13 13 14 14 14 15 16 17 18 18 16 13 13 13 13 11 8 4 3 3 3 2 1 0 0
38 37 35 34 32 23 13 8 12 21 28 32 34 34 30 28 26 20 13 10 9 9 10 13 14 15 17 17 15 13 13 14 13 12 10 7 6 5 3 2 1 0 0
41 40 38 37 35 26 14 6 10 21 31 33 34 34 32 30 27 22 17 15 14 11 9 9 12 12 12 13 13 15 14 14 14 14 13 11 10 7 4 2 1 0 0
37 37 37 36 34 27 14 5 8 22 33 35 35 33 29 26 23 18 19 23 24 18 10 7 6 6 6 6 9 13 14 14 14 14 14 13 12 9 6 4 3 1 1
32 32 34 34 32 26 13 3 7 21 33 38 39 33 25 21 18 16 21 28 29 22 13 6 3 1 2 2 4 9 12 14 13 13 14 13 11 10 9 7 5 3 1

GEFSMA_con_probscp_216.txt.gz
Probability
0 0 2 3 2 2 2 2 2 1 0 0 0 0 0 0 0 0 1 4 7 6 5 5 6 6 6 5 6 6 5 5 5 5 3 1 0 0 0 0 0 0 0
1 2 3 5 4 3 4 5 4 3 1 0 0 0 0 0 0 0 1 2 5 6 6 6 6 6 5 3 3 4 5 5 6 5 3 2 1 0 0 0 0 0 0
5 5 6 6 5 5 6 8 7 6 4 2 1 1 1 1 1 1 1 1 3 4 5 6 6 5 4 3 2 3 5 6 6 5 3 2 1 0 0 0 0 0 0
9 9 7 5 5 5 6 8 9 8 7 5 3 3 4 3 2 1 2 3 3 3 3 4 5 6 6 4 3 3 4 5 6 5 4 2 1 0 0 0 0 0 0
10 9 7 6 6 5 6 7 8 10 9 8 5 3 5 5 3 3 3 5 6 5 3 2 4 6 6 5 4 4 4 4 4 4 4 3 2 1 1 0 0 0 0
8 9 9 9 9 7 7 8 9 10 12 11 8 4 4 5 6 7 6 6 8 8 6 5 6 6 5 5 6 7 7 6 5 6 6 5 4 4 3 1 0 0 0
7 9 11 13 13 12 11 10 10 11 13 14 12 8 5 6 8 10 10 9 9 9 9 10 12 11 9 6 6 7 9 10 10 10 9 8 7 5 4 2 0 0 0
6 8 11 13 14 14 14 14 13 13 13 14 14 11 8 6 7 8 10 12 12 11 10 12 15 16 15 11 8 7 10 13 13 12 12 10 7 4 2 1 0 0 0
7 9 11 12 12 13 16 18 16 14 13 13 13 14 12 9 6 6 8 11 13 13 11 10 12 16 19 19 15 12 12 13 13 13 12 11 7 4 1 0 0 0 0
11 12 14 14 13 12 14 16 17 14 12 11 14 16 16 14 11 8 7 8 10 12 11 10 11 15 20 23 21 19 16 14 13 12 11 9 8 5 3 1 1 0 0
16 14 16 19 17 13 12 13 14 13 10 9 12 15 17 17 15 12 9 7 8 10 12 14 15 16 18 22 23 20 16 13 11 10 7 6 6 5 4 3 2 1 0
21 18 19 23 20 15 12 12 12 11 9 8 11 13 16 17 16 13 10 7 7 10 14 17 20 19 18 20 20 17 14 11 7 5 4 4 4 4 4 4 3 2 1
23 23 24 25 22 16 13 13 12 11 10 11 12 14 16 17 15 12 10 8 7 9 13 18 22 22 18 18 16 13 10 7 4 2 3 3 3 3 4 3 3 3 3
23 25 26 26 23 18 14 14 13 12 12 14 14 15 16 16 15 13 12 9 7 7 9 15 20 22 21 17 12 8 7 5 2 1 1 2 2 2 2 3 3 3 3
25 26 28 28 25 21 18 17 16 15 16 17 16 17 18 16 15 17 16 13 10 8 7 11 17 22 22 16 9 8 8 6 2 0 0 1 1 1 1 1 2 2 1
29 31 31 30 28 26 23 21 20 18 18 19 19 21 22 21 20 21 20 18 16 13 9 9 14 20 21 15 11 12 13 9 4 0 0 0 0 0 0 0 1 1 0
36 36 34 31 30 28 26 25 24 22 20 20 20 22 24 25 25 25 25 24 23 20 14 12 15 19 21 18 16 17 15 11 6 2 0 0 0 0 0 0 0 0 0
46 43 38 34 29 27 28 28 27 25 23 22 21 22 24 26 27 27 28 28 27 23 19 18 19 20 21 21 19 18 16 13 9 4 1 0 0 0 0 0 0 0 0
51 48 45 39 31 27 27 29 29 27 24 23 23 23 24 26 27 27 28 30 28 23 22 22 22 23 22 20 19 18 17 15 12 7 3 1 0 0 0 0 0 0 0
50 49 47 43 35 28 27 29 29 27 25 24 24 25 26 26 27 26 27 29 28 25 24 24 23 23 23 20 18 18 17 16 14 10 7 4 2 1 1 0 0 0 0
50 49 48 45 38 30 25 27 30 29 29 29 28 27 28 26 24 24 25 27 28 28 27 24 20 20 21 21 20 19 18 16 14 13 11 8 5 4 3 1 0 0 0
52 51 49 46 41 32 24 21 26 31 33 34 34 31 28 25 23 23 22 22 23 24 24 22 19 18 19 20 21 20 19 16 15 15 14 10 7 6 5 3 1 0 0
53 52 50 49 45 37 25 18 20 28 32 35 37 35 30 26 27 27 24 20 18 17 17 18 20 21 22 20 20 20 18 16 17 17 15 11 8 8 7 4 1 0 0
49 49 49 49 47 40 28 17 16 24 31 36 38 38 36 32 29 30 28 25 21 16 12 12 16 20 21 19 18 17 15 14 16 17 15 12 9 9 9 5 1 0 0
45 45 46 46 45 38 26 14 13 22 32 37 40 40 38 33 26 24 27 29 29 23 15 10 10 11 13 13 14 15 14 12 12 13 15 13 11 10 9 5 2 1 0
43 43 42 42 40 35 24 12 11 22 33 38 41 40 35 30 22 19 25 30 32 28 19 12 6 5 6 7 9 14 14 11 10 12 14 13 12 10 9 6 3 2 1

GEFSMA_con_probscp_222.txt.gz
Probability
0 0 0 0 0 0 0 0 0 0 0 0 0 0 0 0 0 0 0 0 1 3 5 6 7 5 4 2 1 1 2 4 3 2 1 1 1 0 1 2 3 3 3
0 0 0 0 0 0 0 0 0 0 0 0 0 0 0 0 0 0 0 0 0 2 5 6 6 5 4 2 0 0 1 3 3 3 2 2 2 1 1 2 2 2 2
0 0 0 0 0 0 0 0 0 0 0 0 0 0 0 0 0 0 0 0 0 1 4 6 6 5 4 1 0 0 0 2 3 3 3 3 3 3 2 2 2 2 2
0 0 0 0 0 0 0 1 1 1 1 1 1 1 1 1 1 0 0 0 0 1 3 5 6 6 5 2 0 0 0 1 2 3 3 3 3 3 3 3 3 2 2
0 0 0 0 0 0 0 1 2 2 2 2 2 2 2 2 2 1 1 1 1 1 2 3 4 6 6 5 3 2 2 3 3 3 3 3 3 3 3 3 3 3 3
0 0 0 0 0 0 0 1 1 2 2 2 2 1 1 1 2 2 2 2 2 2 3 3 3 5 6 8 8 8 8 7 5 5 5 5 4 4 3 3 3 3 3
0 0 0 0 0 0 0 0 0 1 1 1 1 0 0 0 1 1 2 2 3 3 4 5 5 4 6 9 11 13 13 11 9 7 8 8 7 5 4 4 3 2 2
0 0 0 0 0 0 0 0 0 0 0 0 0 0 0 0 0 0 1 1 1 2 4 5 5 4 4 6 8 11 13 14 12 11 10 9 8 7 6 6 4 2 1
0 0 0 0 0 0 0 0 0 0 0 0 0 0 0 0 0 0 0 0 0 1 2 2 2 2 3 3 4 6 10 14 15 13 11 10 8 7 6 6 5 3 1
0 0 0 0 1 2 1 1 0 0 0 0 0 0 1 0 0 0 0 0 0 0 0 1 1 1 2 3 3 3 6 10 12 11 10 10 8 7 6 6 5 4 3
0 0 1 2 3 4 3 2 1 1 1 1 0 1 1 1 0 0 0 0 0 0 0 0 1 1 2 3 3 3 3 4 6 6 6 7 7 6 6 6 5 4 3
1 1 3 5 7 8 6 4 3 2 3 2 2 2 2 1 1 0 0 0 0 0 0 0 0 1 1 2 4 5 4 3 2 3 3 4 5 6 6 6 6 5 4
2 3 5 8 10 10 7 4 3 4 5 5 4 3 3 2 1 0 0 0 0 0 0 0 0 0 0 1 3 5 5 4 3 3 3 4 5 5 6 6 6 5 4
5 6 8 9 9 9 6 4 4 5 6 7 5 4 4 3 1 0 0 0 0 0 0 0 0 0 0 0 1 2 3 4 3 3 3 3 4 4 4 4 4 3 2
9 10 11 10 8 7 6 5 5 6 7 8 7 6 5 4 2 1 1 1 1 1 0 0 0 0 0 0 0 0 1 1 1 2 1 1 2 2 2 2 2 1 0
15 15 14 11 8 6 5 6 7 8 9 10 9 7 7 7 6 4 3 3 4 3 1 0 0 0 0 0 0 0 0 0 0 0 0 0 1 1 1 1 1 0 0
16 16 14 12 9 7 6 7 8 10 10 10 9 8 8 9 9 8 7 7 8 6 3 1 0 0 0 0 0 0 1 1 1 0 0 0 0 0 0 0 0 0 0
16 16 15 13 11 10 10 9 9 11 10 8 8 8 8 9 10 10 10 10 10 9 6 3 1 1 0 1 1 1 2 3 2 1 0 0 0 0 0 0 0 0 0
16 18 19 17 15 15 15 12 11 11 10 8 8 8 8 9 9 8 8 9 9 9 8 6 4 3 2 2 2 2 3 3 2 1 0 0 0 0 0 0 0 0 0
21 21 21 20 19 20 20 17 14 13 11 9 8 8 8 8 7 6 6 6 7 7 8 7 6 5 3 3 3 3 3 3 2 0 0 0 0 0 0 0 0 0 0
25 24 22 20 21 22 22 18 16 14 12 10 8 8 8 8 6 4 4 5 5 5 6 6 7 6 3 3 3 4 3 3 2 0 0 0 0 0 0 0 0 0 0
28 26 24 22 21 21 18 14 14 16 14 11 10 9 9 8 6 4 3 3 3 3 3 5 6 6 3 2 3 5 4 3 2 1 0 0 0 0 0 0 0 0 0
28 27 26 26 24 18 12 8 10 15 15 12 12 12 10 9 8 6 4 3 3 3 3 5 6 5 2 2 4 5 5 3 2 1 0 0 0 0 0 0 0 0 0
24 24 26 28 25 16 7 4 6 11 13 13 13 12 11 10 9 7 5 4 4 3 4 6 6 3 1 2 3 4 4 3 2 0 0 0 0 0 0 0 0 0 0
20 21 24 26 24 14 5 2 4 8 11 11 11 10 11 10 8 6 5 6 5 4 4 4 4 2 1 1 1 2 3 4 2 1 0 0 0 0 0 0 0 0 0
18 20 23 24 21 13 6 3 5 9 11 9 8 8 9 10 7 4 4 6 6 5 4 3 2 1 0 0 0 1 4 5 3 1 0 0 0 0 0 0 0 0 0

GEFSMA_con_probscp_228.txt.gz
Probability
0 0 0 0 0 0 0 0 0 0 0 0 0 0 1 1 1 0 0 0 1 3 3 4 4 4 5 6 7 7 8 8 8 7 7 6 6 5 4 5 5 4 3
0 0 0 0 0 0 0 0 0 0 0 0 1 1 2 2 2 1 1 1 2 3 3 4 4 5 5 6 7 8 9 9 9 9 8 8 7 6 6 6 6 5 4
0 0 0 0 0 0 0 0 0 0 0 0 1 2 2 2 2 2 1 1 1 2 3 3 4 5 5 6 7 9 10 10 10 10 10 9 8 7 6 7 7 6 6
0 0 0 0 0 0 0 0 0 0 0 0 1 1 1 1 1 1 1 1 0 1 2 3 3 4 4 4 5 8 9 9 10 10 11 10 8 7 6 6 6 6 6
0 0 0 0 0 0 0 0 0 0 0 0 1 1 1 1 1 1 3 3 2 2 3 4 4 4 5 4 5 7 8 9 10 10 10 10 9 8 7 6 6 6 6
0 0 0 0 0 0 0 0 0 1 1 1 2 2 2 2 2 3 4 5 5 4 4 5 4 4 6 6 6 7 8 10 10 10 10 11 11 9 8 6 5 5 5
0 0 0 0 1 1 1 1 1 2 2 3 3 3 3 2 3 3 4 4 5 4 4 4 4 4 5 6 6 7 8 9 9 8 9 10 10 9 8 7 5 6 6
0 0 0 1 2 2 2 2 3 3 3 3 3 3 3 3 3 3 3 3 4 3 3 3 3 3 4 3 3 4 6 6 7 7 8 9 9 9 9 8 8 8 9
0 0 1 2 3 3 3 3 3 3 3 3 3 3 3 3 3 3 3 3 3 3 3 3 3 3 3 2 1 1 2 3 4 6 8 11 11 10 9 8 9 10 11
1 1 2 3 4 4 4 4 4 3 3 3 3 3 3 3 3 3 3 3 3 3 3 3 3 3 3 2 1 0 1 2 3 5 8 11 13 12 9 7 8 10 11
2 3 3 4 5 6 6 6 5 4 3 3 3 3 3 3 3 3 3 3 3 3 3 3 3 3 3 2 1 1 2 2 3 4 5 8 11 11 8 7 7 9 10
4 3 4 5 6 6 6 6 5 4 3 3 3 3 3 3 3 3 3 3 3 3 3 3 3 3 3 2 1 1 2 1 1 2 3 4 5 7 7 6 7 9 10
5 5 6 7 7 6 6 5 4 3 3 3 3 3 3 3 3 3 3 3 3 3 3 3 3 3 3 2 1 2 2 1 0 1 1 1 2 3 3 4 5 7 8
6 7 8 9 8 7 6 5 3 3 3 3 3 3 3 3 3 3 3 3 3 3 2 2 3 3 3 2 1 1 1 1 0 0 0 0 1 1 1 1 2 4 5
9 8 10 11 10 9 8 5 4 3 3 3 4 4 3 3 3 3 3 3 3 4 3 3 3 3 3 2 1 0 0 0 0 0 0 0 0 0 0 0 0 1 2
11 11 11 11 12 11 10 8 7 7 6 5 6 5 4 3 4 4 4 4 4 5 5 5 4 4 4 3 2 1 0 0 0 0 0 0 0 0 0 0 0 0 1
12 12 12 13 13 13 13 12 12 12 11 10 9 7 5 4 5 6 7 7 7 6 7 7 6 5 5 5 4 3 1 1 1 0 0 0 0 0 0 0 0 0 0
12 11 12 13 14 16 17 17 15 15 15 15 13 12 9 8 8 8 9 9 9 9 8 7 6 5 6 6 6 5 4 4 3 1 0 0 0 0 0 0 0 0 0
13 11 10 11 13 16 17 18 18 17 17 18 18 16 14 12 11 9 10 11 11 11 11 8 6 6 7 7 7 7 8 8 6 3 2 1 0 0 0 0 0 0 0
14 12 11 11 12 13 14 16 18 19 19 19 19 17 15 13 12 11 12 12 12 13 13 12 8 7 8 8 9 10 10 9 6 6 5 2 1 1 1 0 0 0 0
16 16 16 16 15 13 12 13 16 19 20 19 18 17 14 12 11 11 12 13 13 14 15 14 10 7 7 7 8 9 10 8 5 4 4 3 2 2 1 1 0 0 0
22 22 21 20 18 15 11 10 13 17 19 19 18 17 15 13 11 10 9 9 10 11 12 12 9 7 6 6 6 6 7 6 4 3 2 2 1 1 1 1 0 0 0
26 25 24 22 20 15 9 7 9 13 17 17 17 17 16 14 12 11 9 7 7 6 6 8 7 5 4 5 4 4 4 5 4 3 3 3 2 0 0 0 0 0 0
25 26 24 22 19 13 7 4 6 9 13 15 16 17 17 15 12 11 11 10 8 6 4 4 5 4 3 3 3 3 3 2 3 3 3 4 3 1 0 0 0 0 0
24 24 23 21 19 15 8 4 4 7 12 14 15 16 15 13 9 8 11 14 13 10 5 3 2 2 1 1 1 1 1 1 2 2 2 3 3 1 0 0 0 0 0
24 23 22 21 20 16 10 4 4 7 12 15 16 15 12 9 7 8 11 15 16 13 8 3 2 1 0 0 0 1 1 1 1 1 1 1 2 2 1 1 1 0 0

GEFSMA_con_probscp_234.txt.gz
Probability
1 0 0 0 0 0 0 1 1 1 1 1 0 0 0 0 0 0 0 0 0 0 0 0 0 0 0 0 0 0 0 1 1 1 0 0 0 0 0 0 0 0 0
2 1 1 0 0 0 1 2 2 2 2 1 1 0 0 0 0 0 0 0 0 0 0 0 0 0 0 0 0 0 1 2 2 2 1 1 0 0 0 0 0 0 0
2 2 2 1 1 1 1 2 3 3 3 2 1 1 0 0 0 0 0 0 1 1 1 1 1 1 1 1 1 2 2 3 3 3 3 3 2 1 1 1 1 2 1
1 1 2 3 3 3 2 2 2 2 2 2 2 1 0 0 0 0 0 0 1 2 2 2 2 2 2 3 4 4 5 5 5 5 5 5 5 4 3 2 3 3 3
0 0 1 3 4 3 2 1 1 1 1 1 1 1 0 0 0 0 0 0 1 1 1 1 1 1 2 3 3 4 6 7 7 7 6 6 7 6 5 4 4 3 3
0 0 0 1 3 3 2 1 1 1 1 1 1 1 0 0 0 0 0 0 0 0 0 0 0 0 1 2 1 2 4 5 6 7 7 7 8 8 7 6 6 5 4
0 0 0 1 2 3 2 1 1 1 1 2 3 2 1 0 0 0 0 0 0 0 0 0 0 0 0 1 0 0 1 1 3 4 6 7 8 8 9 9 8 8 7
1 1 0 1 2 3 2 2 2 3 4 5 6 5 2 1 1 1 0 0 0 0 0 0 0 0 1 1 1 1 0 0 1 2 5 6 5 6 9 9 7 7 8
2 2 1 2 3 3 3 4 6 7 7 8 8 8 6 4 3 1 0 0 1 0 0 0 0 1 1 2 3 2 0 0 0 1 3 5 6 6 7 6 4 5 7
3 3 3 3 4 4 5 6 8 9 8 7 8 9 9 7 5 2 0 0 0 0 0 0 0 1 2 2 3 2 0 0 0 0 2 5 7 7 7 6 4 4 6
4 4 5 5 6 6 6 6 7 8 7 6 7 8 9 9 8 4 1 0 0 0 0 0 1 1 2 2 3 2 0 0 0 0 1 4 6 7 7 7 5 5 5
6 7 8 9 10 10 9 7 6 6 6 7 7 7 8 9 8 5 3 2 1 1 1 1 2 3 3 3 2 2 0 0 0 0 0 2 3 5 5 5 5 5 4
7 9 11 14 15 15 12 8 6 6 6 8 7 6 7 9 9 7 4 3 2 2 2 3 4 4 4 5 4 2 0 0 0 0 0 0 1 2 3 4 5 5 4
8 9 12 15 16 16 13 10 9 8 7 7 5 4 5 7 8 8 7 5 4 3 3 4 5 6 7 8 7 4 3 2 1 1 0 0 0 0 1 3 4 5 4
11 12 14 15 15 16 15 13 12 12 10 8 6 5 5 6 7 8 8 8 6 5 3 4 6 9 10 10 9 8 7 5 3 1 0 0 0 0 1 2 3 3 3
16 17 19 19 17 17 18 18 16 15 14 12 10 8 6 5 5 7 8 9 9 7 4 4 7 10 12 11 10 11 10 7 4 2 0 0 0 0 0 1 1 1 1
24 23 23 23 21 20 21 22 20 17 17 16 15 12 10 8 8 9 9 9 10 10 8 6 8 11 14 13 13 14 12 8 6 3 1 0 0 0 0 0 0 0 0
31 29 26 24 23 22 24 25 24 21 19 19 18 18 16 15 15 15 14 13 12 12 12 11 11 13 15 15 14 15 13 10 8 5 2 1 0 0 0 0 0 0 0
37 34 31 29 25 23 25 26 25 23 21 20 21 21 21 23 24 24 23 20 17 17 17 15 13 14 15 14 13 12 10 10 9 7 5 3 1 0 0 0 0 0 0
38 35 35 34 31 27 27 27 26 24 23 24 25 24 24 27 28 28 27 25 23 23 22 18 14 14 15 16 15 10 8 9 11 11 9 6 4 2 2 1 0 0 0
35 33 33 34 33 32 30 28 27 27 28 30 31 31 29 28 27 25 23 22 24 26 26 22 18 16 19 23 20 13 9 10 13 13 11 8 6 7 6 4 2 0 0
34 33 31 32 32 31 28 24 23 26 31 35 37 36 32 28 26 21 16 13 16 22 25 26 23 20 23 27 25 19 15 15 16 16 12 9 8 10 10 8 3 1 0
34 34 33 32 31 28 22 16 16 22 29 34 37 35 31 28 27 26 19 13 14 17 21 26 26 22 23 27 27 24 23 23 20 20 18 13 13 14 12 9 4 1 0
36 35 34 34 32 26 16 9 10 17 25 29 32 32 30 28 27 29 27 22 21 19 17 19 22 20 20 23 23 23 25 26 23 23 23 21 19 18 15 10 4 0 0
38 37 35 34 31 24 12 4 6 15 21 23 25 27 27 25 22 21 24 26 26 22 15 12 12 12 12 13 15 18 22 23 23 24 24 24 23 21 18 13 7 2 1
40 38 36 33 31 24 12 2 5 15 20 20 22 24 23 21 17 14 19 24 26 22 16 11 7 6 7 7 8 15 20 21 24 25 25 25 23 20 18 15 10 6 2

GEFSMA_con_probscp_240.txt.gz
Probability
1 1 1 0 1 2 1 1 1 1 1 0 0 1 3 3 2 1 4 9 12 10 7 6 4 1 0 0 1 2 3 5 6 5 4 4 5 5 5 3 2 1 1
2 3 2 1 1 1 1 2 3 2 2 1 0 1 3 4 3 2 4 7 11 11 10 9 7 5 3 2 3 5 6 6 6 5 4 4 4 4 4 3 3 2 2
2 3 3 2 1 1 2 3 4 3 2 1 1 1 2 4 4 4 4 6 9 12 13 13 12 11 8 6 6 7 7 6 6 5 5 5 4 3 3 3 3 3 3
2 2 2 1 1 1 2 3 3 2 1 1 1 0 1 2 4 5 4 5 7 10 13 16 17 17 13 8 7 8 8 6 5 5 5 5 3 2 2 2 2 2 2
3 3 3 3 3 2 1 1 1 1 1 1 1 0 0 1 2 4 4 3 5 10 15 18 21 20 15 11 10 10 10 8 6 5 4 5 5 3 2 2 1 1 1
3 4 5 6 6 4 2 1 1 2 2 3 2 2 1 2 3 4 3 1 3 9 14 18 21 19 16 14 13 14 13 11 9 7 5 6 6 5 4 3 2 1 1
5 6 7 9 8 7 5 4 3 4 4 5 5 5 5 4 5 5 5 3 4 7 11 16 19 18 16 14 12 13 13 11 10 9 7 6 5 5 4 3 3 3 2
10 10 11 11 10 10 8 7 6 5 5 6 7 8 7 5 4 5 7 7 6 7 7 10 17 20 19 15 9 7 9 11 11 11 9 7 5 4 4 4 4 4 4
15 14 15 15 13 12 10 9 8 6 5 6 7 7 7 6 4 5 7 8 9 8 5 5 11 19 22 18 12 8 8 10 12 12 11 8 6 5 5 5 5 4 4
17 16 17 18 18 15 13 11 9 7 7 6 7 7 7 6 6 6 6 7 8 8 6 3 5 12 18 19 18 16 12 10 12 12 11 8 6 5 4 4 4 4 4
20 20 21 23 23 20 17 13 10 9 8 7 7 7 7 7 6 6 6 7 7 8 6 4 4 7 11 16 20 19 15 12 11 11 10 7 6 6 5 4 4 4 5
25 25 26 28 28 26 23 18 14 12 11 10 9 7 6 6 6 6 7 6 7 7 7 6 5 5 7 11 16 16 13 11 9 8 8 7 7 7 6 5 5 6 6
27 28 30 31 31 29 25 21 18 16 15 14 11 9 7 5 6 7 7 6 4 5 7 7 5 4 5 10 14 14 11 7 4 4 4 4 5 4 4 5 6 5 4
25 28 31 32 31 28 24 21 20 20 21 19 15 13 11 8 7 8 8 6 3 3 5 7 8 7 8 12 15 15 12 7 2 1 1 1 1 1 1 3 3 2 1
26 28 31 30 28 27 25 24 24 25 26 24 21 20 17 13 11 9 9 8 6 4 4 7 10 11 11 13 14 16 16 10 4 2 1 0 0 0 0 1 1 0 0
34 34 33 29 27 27 28 28 27 27 28 28 27 25 22 19 16 13 12 12 11 9 7 7 11 14 15 15 14 17 17 12 6 4 2 1 0 0 0 0 0 0 0
42 41 38 33 28 27 29 30 27 26 26 27 27 27 26 25 22 19 17 17 17 16 13 11 14 19 22 22 20 20 17 13 9 5 2 1 0 0 0 0 0 0 0
45 44 43 38 33 31 32 33 30 28 27 27 27 29 30 31 30 28 25 23 22 23 22 20 20 24 27 28 27 24 18 13 10 6 2 0 0 0 0 0 0 0 0
47 46 45 43 41 39 37 36 35 34 32 31 30 31 32 35 36 36 32 28 27 29 30 26 23 25 28 30 30 26 19 14 9 5 1 0 0 0 0 0 0 0 0
51 50 47 45 44 42 39 36 36 37 37 35 33 31 31 32 34 32 29 28 29 32 34 30 26 27 29 31 32 28 20 15 11 6 3 2 1 0 0 0 0 0 0
48 48 46 43 42 39 34 31 31 34 36 36 34 31 28 27 25 22 20 20 24 30 34 33 31 30 29 29 30 26 20 15 14 12 9 6 4 3 2 0 0 0 0
44 44 43 43 41 35 27 22 24 29 32 33 32 31 28 24 21 18 15 13 16 21 27 30 29 27 26 25 25 22 18 15 15 16 14 9 8 8 6 3 1 0 0
48 46 44 43 41 34 22 14 16 24 30 31 31 30 28 26 24 22 18 15 14 15 16 20 22 22 23 24 23 20 18 17 17 17 14 11 10 11 10 6 2 0 0
52 49 46 44 41 33 19 10 10 20 29 32 30 28 28 27 24 21 21 20 20 17 12 11 15 17 18 20 19 17 17 18 18 17 16 13 11 11 12 8 3 0 0
49 46 43 42 40 32 19 8 9 18 28 29 26 23 23 22 19 16 17 21 21 18 12 8 9 9 8 8 10 12 15 17 17 17 18 17 14 12 11 8 4 1 0
47 43 40 40 39 32 19 8 8 19 26 26 23 20 17 17 15 13 14 18 18 16 13 9 5 3 2 1 3 8 14 15 15 16 19 20 17 13 10 7 5 2 0

GEFSMA_con_probscp_246.txt.gz
Probability
0 0 0 0 0 0 0 0 0 0 0 0 0 0 0 0 0 0 0 1 3 4 4 3 2 2 3 3 2 1 0 0 0 1 1 2 2 3 2 1 0 0 0
0 0 0 0 0 0 0 0 0 0 0 0 0 0 0 0 0 0 0 1 3 5 5 4 3 3 4 4 3 2 1 1 1 2 2 1 1 2 1 0 0 0 0
0 0 0 0 0 0 0 0 0 0 0 0 0 0 0 0 0 0 0 0 2 5 6 6 7 7 7 7 5 4 5 4 4 3 2 1 0 0 0 0 0 0 0
0 0 0 0 0 0 0 0 0 0 0 0 0 0 0 0 0 0 0 1 2 4 5 8 10 12 10 8 7 7 8 8 7 6 3 1 0 0 0 0 0 0 0
0 0 0 0 0 0 0 0 0 0 0 0 0 0 0 0 0 0 0 1 2 2 3 6 9 11 11 9 9 10 10 9 9 7 4 2 1 1 1 1 1 1 1
1 0 0 0 0 0 0 0 0 0 0 0 0 0 0 0 0 0 0 1 1 1 1 2 4 7 8 9 10 10 11 10 9 7 5 3 2 2 2 2 2 2 2
2 1 0 0 1 1 1 0 0 1 1 1 0 0 0 0 0 0 0 0 0 0 0 1 2 2 3 5 6 7 8 8 8 8 5 3 2 3 3 3 2 2 2
2 1 0 0 1 2 1 0 1 2 2 1 0 0 0 0 0 0 0 0 0 0 0 0 0 0 0 1 2 3 4 4 5 6 6 4 2 2 2 2 2 1 1
3 2 1 0 1 1 1 0 1 2 2 1 0 0 0 0 0 0 0 0 0 0 0 0 0 0 0 0 0 1 1 1 3 5 6 5 4 3 2 2 2 2 1
5 4 3 2 1 1 1 1 1 2 2 2 1 1 0 0 0 0 0 0 0 0 0 0 0 0 0 0 0 0 0 0 2 4 5 6 7 6 5 4 4 3 2
6 4 4 4 4 3 3 2 3 3 4 4 3 2 1 1 0 0 0 0 0 0 0 0 0 0 0 0 0 0 1 1 2 3 3 5 8 10 9 6 5 4 3
6 5 5 5 6 5 4 3 4 4 5 6 5 3 3 2 1 1 1 0 0 0 0 0 0 1 1 1 1 2 3 3 2 1 1 3 7 10 9 6 4 4 4
7 6 5 4 5 5 4 4 5 5 5 5 4 3 3 3 2 2 2 1 0 0 0 0 0 1 2 2 3 4 4 3 2 0 0 1 4 6 6 4 3 3 4
9 8 5 3 4 5 4 5 5 5 4 4 3 3 3 2 2 2 3 2 1 0 0 0 0 1 2 2 2 2 3 2 1 0 0 0 1 2 2 2 2 2 2
13 11 7 5 5 5 4 4 4 3 2 2 2 2 1 1 1 1 2 2 2 1 1 1 1 1 1 1 1 0 1 1 1 0 0 0 0 0 0 0 1 1 1
16 14 10 8 7 7 5 4 3 2 2 1 1 1 0 0 0 0 1 1 2 3 2 2 2 1 0 0 0 0 0 1 1 0 0 0 0 0 0 0 0 0 0
16 15 14 12 12 11 10 7 5 4 4 3 1 0 0 0 0 0 0 1 3 4 4 3 2 1 1 1 1 1 1 1 1 0 0 0 0 0 0 0 0 0 0
15 16 17 17 17 17 16 14 12 10 9 6 3 2 2 1 1 0 1 2 4 5 5 4 3 2 2 3 3 2 2 2 2 1 0 0 0 0 0 0 0 0 0
15 16 18 20 20 21 21 19 17 16 14 9 6 4 4 4 3 3 4 5 6 6 6 5 4 3 3 4 4 3 3 3 2 1 0 0 0 0 0 0 0 0 0
16 17 19 21 22 23 22 20 18 16 14 11 8 6 5 4 4 6 8 8 8 8 7 6 5 4 3 4 4 5 4 3 1 0 0 0 0 0 0 0 0 0 0
16 17 20 23 24 23 20 18 16 13 12 10 8 6 5 4 5 7 8 8 9 8 8 7 6 5 4 4 4 5 4 3 2 1 0 0 0 0 0 0 0 0 0
17 17 19 23 23 22 19 16 13 11 10 9 6 5 5 5 5 5 5 5 6 7 7 8 7 7 5 4 4 3 2 2 2 2 1 0 0 0 0 0 0 0 0
16 17 18 21 22 20 16 12 9 9 9 7 5 5 6 6 4 3 3 3 4 5 6 7 7 7 6 5 3 1 0 1 1 2 1 0 0 0 0 0 0 0 0
16 16 17 19 19 17 13 8 6 7 8 7 6 8 9 6 4 3 3 3 3 4 4 4 5 5 5 5 3 1 0 0 0 1 1 0 0 0 0 0 0 0 0
17 17 17 18 16 13 10 7 7 8 9 8 7 8 7 4 2 2 2 2 2 2 2 1 2 3 3 3 2 1 1 1 1 1 1 1 1 1 0 0 0 0 0
19 19 18 17 15 12 8 7 8 10 10 7 4 5 4 2 1 1 1 1 1 1 0 0 1 1 1 1 0 1 2 2 2 2 2 2 2 2 1 0 0 0 0

GEFSMA_con_probscp_252.txt.gz
Probability
0 0 0 0 0 0 0 0 0 0 0 0 0 0 0 0 0 0 0 0 0 0 0 0 1 1 2 2 1 1 2 1 1 1 3 3 2 1 0 0 1 1 1
0 0 0 0 0 0 0 0 0 0 0 0 0 0 0 0 0 0 0 0 0 0 0 1 2 3 3 4 3 3 3 3 2 1 2 2 1 1 1 0 0 0 0
0 0 0 0 0 0 0 0 0 0 0 0 0 0 0 0 0 0 0 0 0 0 1 2 3 4 5 6 6 5 4 4 3 1 1 2 2 2 2 1 0 0 0
0 0 0 0 0 0 0 0 0 0 0 0 0 0 0 0 0 0 0 0 1 1 2 3 4 5 5 6 6 6 5 4 4 2 1 1 1 2 2 1 0 0 0
0 0 0 0 0 0 0 0 0 0 0 0 0 0 0 0 0 0 0 1 2 3 3 3 4 5 5 5 6 7 6 5 4 4 3 1 0 1 1 1 0 0 0
0 0 0 0 0 0 0 0 0 0 0 0 0 0 0 0 0 0 0 1 2 3 3 3 3 3 3 3 4 6 6 7 7 6 5 2 0 0 0 0 0 0 0
0 0 0 0 0 0 0 0 0 0 0 0 0 0 0 0 0 0 0 0 1 3 3 2 1 1 0 1 1 3 5 7 8 7 5 2 0 0 0 0 0 0 0
1 1 1 2 1 0 0 0 1 0 0 0 0 0 0 0 0 0 0 0 1 2 2 1 0 0 0 0 0 1 3 5 6 5 3 1 0 0 0 0 0 0 0
2 2 3 3 3 1 0 0 0 0 0 0 0 0 0 0 0 0 0 0 0 1 1 0 0 0 0 0 0 1 2 3 3 2 1 1 1 0 0 0 0 0 0
3 3 4 5 5 3 1 0 0 0 1 1 0 0 0 0 0 0 0 0 0 0 0 0 0 0 0 0 0 1 1 1 1 1 0 0 0 0 0 0 1 1 1
3 4 5 5 5 4 2 1 0 0 1 1 2 1 0 0 0 0 0 0 0 0 0 0 0 0 0 0 0 0 0 0 0 0 0 0 0 0 0 1 1 1 2
3 3 4 4 5 5 3 2 1 1 2 3 3 2 1 0 0 0 0 0 0 0 0 0 0 0 0 0 0 0 0 0 0 0 0 0 0 0 1 2 2 2 2
4 4 4 4 5 5 4 2 2 3 3 3 3 2 1 0 0 0 0 0 0 0 0 0 0 0 0 0 0 0 0 0 0 0 0 0 0 0 1 2 3 3 2
6 6 6 6 6 5 4 3 3 3 2 2 2 1 0 0 0 0 0 0 0 0 0 0 0 0 0 0 0 0 0 0 0 0 0 0 0 0 0 1 2 3 2
6 6 7 7 7 6 7 6 5 3 2 1 1 0 0 0 0 0 0 0 0 0 0 0 0 0 0 0 0 1 1 0 0 0 0 0 0 0 0 0 1 1 1
4 5 7 8 8 8 9 10 9 6 4 2 2 1 1 0 0 0 0 0 0 0 0 0 0 0 0 0 1 2 2 1 0 0 0 0 0 0 0 0 0 0 0
5 6 8 8 8 10 12 12 12 11 9 7 6 5 3 1 0 0 0 0 0 1 1 0 0 1 1 1 1 2 4 3 1 0 0 0 0 0 0 0 0 0 0
8 8 9 9 9 11 13 13 13 13 12 11 11 9 5 3 2 2 2 2 2 2 2 2 2 2 2 2 1 2 3 3 2 0 0 0 0 0 0 0 0 0 0
12 11 11 12 12 13 14 14 15 16 14 12 12 10 7 4 4 4 4 5 5 5 6 6 4 4 4 3 3 3 3 3 2 0 0 0 0 0 0 0 0 0 0
15 14 13 14 15 15 15 17 18 18 16 13 13 12 9 6 4 4 5 7 8 8 8 7 5 5 5 4 3 3 3 2 1 0 0 0 0 0 0 0 0 0 0
18 16 15 15 15 15 15 16 19 19 17 14 14 13 10 7 3 2 3 6 7 6 6 6 5 6 6 5 4 3 3 1 1 0 0 1 1 1 0 0 0 0 0
20 18 17 16 15 13 11 12 15 17 16 14 13 12 9 6 2 1 1 2 3 3 3 3 3 4 5 5 4 3 3 1 0 0 0 1 1 1 0 0 0 0 0
18 18 18 18 16 13 9 7 9 14 16 15 13 11 8 4 2 1 1 1 1 1 1 1 1 1 2 3 3 3 3 2 0 0 1 1 0 0 0 0 0 0 0
15 16 17 18 18 15 10 6 7 11 14 16 15 13 10 6 2 1 1 0 1 1 0 0 0 0 1 1 2 3 3 1 0 0 0 0 0 0 0 1 0 0 0
12 12 13 16 17 15 11 6 7 9 13 15 15 14 12 7 2 0 0 1 2 1 0 0 0 0 0 0 1 2 1 0 0 0 0 0 0 0 0 0 0 0 0
10 10 11 14 16 14 11 6 5 8 12 14 13 11 10 6 2 0 1 2 2 1 0 0 0 0 0 0 0 1 0 0 1 1 1 0 0 0 0 0 0 0 0

GEFSMA_con_probscp_258.txt.gz
Probability
0 0 0 0 0 0 0 0 0 0 0 0 0 0 0 0 0 1 0 0 1 0 0 0 0 0 0 0 0 0 1 3 2 1 1 1 0 0 0 0 0 0 0
0 0 0 0 0 0 0 0 0 0 0 0 0 0 0 0 1 1 1 0 1 1 1 0 0 0 0 0 0 2 3 4 3 3 2 1 0 0 0 0 0 0 0
0 0 0 0 0 0 0 0 0 0 0 0 0 0 0 0 1 2 1 0 1 1 1 1 1 0 1 1 2 3 5 5 6 5 4 2 0 0 0 0 0 0 0
0 0 0 0 0 0 0 0 0 0 0 0 0 1 1 0 1 1 0 0 0 1 1 2 3 2 2 3 4 3 4 5 7 7 5 2 1 0 1 2 1 0 0
0 0 0 0 0 0 1 1 1 0 0 1 2 2 1 0 0 0 0 0 0 0 1 3 4 4 4 6 6 3 2 4 6 7 6 4 2 1 1 2 1 0 0
0 0 0 0 0 1 1 2 1 1 1 2 3 3 2 0 0 0 0 0 0 0 1 3 4 5 5 6 6 3 1 3 6 7 7 7 5 2 1 1 1 0 0
0 0 0 0 2 3 4 4 3 3 3 4 4 3 2 1 0 0 0 0 0 1 2 3 4 5 5 4 3 2 3 4 6 7 8 8 7 4 1 0 0 0 0
0 0 1 1 3 7 9 9 8 7 7 7 6 4 3 2 1 0 0 0 1 2 3 4 4 4 3 2 2 3 6 7 6 5 6 7 7 4 2 1 0 0 0
0 0 2 2 4 7 11 12 12 11 10 9 7 5 4 3 1 0 0 1 2 3 4 4 4 4 3 3 3 3 6 7 5 4 5 6 6 4 3 1 1 1 0
1 1 2 5 6 6 8 11 11 11 10 9 7 6 5 5 3 1 1 2 3 3 3 4 4 3 3 4 4 3 4 4 3 3 4 5 5 5 4 4 4 2 1
3 3 4 6 7 6 7 8 9 10 9 7 7 6 7 7 6 4 3 3 3 3 3 3 3 2 1 3 3 2 2 2 2 3 3 4 4 4 5 7 6 3 2
5 5 5 7 8 7 7 8 9 9 8 7 6 6 7 7 7 5 3 2 2 2 3 3 3 1 0 1 1 1 1 0 1 2 2 3 3 3 5 6 5 3 2
6 6 6 7 7 8 9 9 10 10 8 6 6 6 5 5 5 4 2 1 1 1 2 3 3 1 0 0 0 0 0 0 0 1 1 1 2 3 3 4 3 2 2
8 8 8 8 9 10 11 11 10 9 8 6 5 4 3 3 3 2 1 0 0 0 2 4 3 1 1 1 0 0 1 1 1 0 0 0 1 2 2 2 2 2 2
13 14 14 14 14 15 15 13 11 9 8 7 6 5 4 3 3 2 1 0 0 0 2 4 3 3 3 2 1 1 2 2 1 0 0 0 1 1 1 0 0 0 1
21 21 20 20 21 21 19 16 13 10 10 10 10 10 10 9 7 6 4 2 2 2 2 3 4 6 6 5 4 4 4 4 2 0 0 0 0 0 0 0 0 0 0
29 27 26 25 25 25 23 17 12 10 10 11 13 15 16 17 16 14 11 9 8 8 6 4 6 9 10 9 8 8 6 5 4 1 0 0 0 0 0 0 0 0 0
32 31 30 29 29 29 27 22 15 12 12 13 15 17 20 22 22 21 18 16 16 15 11 8 10 13 13 12 11 9 7 6 5 2 0 0 0 0 0 0 0 0 0
35 34 34 33 33 33 31 26 20 16 16 15 17 18 21 24 24 24 23 21 20 18 14 12 13 14 14 12 11 9 7 7 5 2 0 0 0 0 0 0 0 0 0
38 38 38 36 35 33 30 27 24 21 19 17 17 19 20 21 22 22 23 23 22 21 18 15 14 15 16 13 11 9 8 8 5 2 2 1 1 1 1 0 0 0 0
41 42 40 38 36 32 28 26 26 24 22 20 18 19 18 16 16 16 17 20 21 21 21 18 16 17 18 16 12 10 9 8 7 4 3 3 2 2 2 1 0 0 0
43 43 42 40 38 32 24 22 25 25 25 23 21 20 16 12 10 10 10 10 13 16 18 19 18 18 19 18 14 10 10 10 9 7 4 3 3 3 3 2 1 0 0
43 43 42 41 38 31 20 15 18 24 27 26 25 22 17 12 10 11 9 7 8 10 12 16 17 17 17 17 15 12 11 11 10 8 6 3 2 2 3 3 1 0 0
42 40 40 39 37 29 17 10 13 21 27 27 25 24 21 15 12 13 13 12 12 10 8 9 11 12 12 12 12 11 10 10 9 8 7 4 2 2 2 3 2 0 0
38 35 34 35 35 28 17 9 10 20 27 26 24 24 21 17 13 13 15 16 15 13 8 6 6 5 5 5 7 7 8 8 8 9 9 7 4 3 3 3 2 1 0
35 31 28 31 33 28 18 8 9 19 26 25 23 22 19 16 13 12 15 16 15 14 11 7 4 2 2 2 3 5 5 6 8 11 12 9 6 4 3 3 3 2 1